CAPE
6 3 3 3 4 4 2 1 0 1 1 1 1 0 0 0 0 0 0 0 0 0 0 0 0 0 0 0 0 0 0 0 0 0 0 0 0 0 0 0 0 0 0 0 0
3 3 2 2 3 3 3 2 0 0 0 0 0 0 0 0 0 0 0 0 0 0 0 0 0 0 0 0 0 0 0 0 0 0 0 0 0 0 0 0 0 0 0 0 2
2 4 2 2 3 2 1 1 0 0 0 1 0 0 0 0 0 0 0 0 0 0 0 0 0 0 0 0 0 0 0 0 0 0 0 0 0 0 0 0 0 0 0 32 34
3 4 2 2 2 2 2 1 1 1 0 0 1 0 0 0 0 0 0 0 0 0 0 0 0 0 0 0 0 0 0 0 0 0 0 0 0 0 0 0 0 0 0 11 35
2 3 4 3 3 1 1 0 0 2 0 0 0 0 0 0 0 0 0 0 0 0 0 0 0 0 0 0 0 0 0 0 0 0 0 0 0 0 0 0 0 0 0 0 0
4 5 4 2 1 1 0 0 0 0 0 0 0 0 0 0 0 0 0 0 0 0 0 0 0 0 0 0 0 0 0 0 0 0 0 0 0 0 0 0 0 0 0 0 0
6 5 5 6 3 0 0 0 0 0 0 0 0 0 0 0 0 0 0 0 0 0 0 0 0 0 0 0 0 0 0 0 0 0 0 0 0 0 0 0 0 0 0 0 0
14 12 10 13 4 2 0 0 0 0 0 0 0 0 0 0 0 0 0 0 0 0 0 0 0 0 0 0 0 0 0 0 0 0 0 0 0 0 0 0 0 0 0 0 0
15 8 9 8 3 4 0 0 0 0 0 0 0 0 0 0 0 0 0 0 0 0 0 0 0 0 0 0 0 0 0 0 0 0 0 0 0 0 0 0 0 0 0 0 0
15 15 7 3 2 6 0 0 0 0 0 0 0 0 0 0 0 0 0 0 0 0 0 0 0 0 0 0 0 0 0 0 0 0 0 0 0 0 0 0 0 0 0 0 0
15 16 7 2 8 3 0 0 0 0 0 0 0 0 0 0 0 0 0 0 0 0 0 0 0 0 0 0 0 0 0 0 0 0 0 0 0 0 0 0 0 0 0 0 0
10 14 3 0 0 0 0 0 1 0 0 0 0 0 0 0 0 0 0 0 0 0 0 0 0 0 0 0 0 0 0 0 0 0 0 0 0 0 0 0 0 0 0 0 0
9 4 10 0 0 0 0 0 0 0 0 0 0 0 0 0 0 0 0 0 0 0 0 0 0 0 0 0 0 0 0 0 0 0 0 0 0 0 0 0 0 0 0 0 0
10 20 7 2 0 0 0 0 0 0 0 0 0 0 0 0 0 0 0 0 0 0 0 0 0 0 0 0 0 0 0 0 0 0 0 0 0 0 0 0 0 0 0 0 0
6 4 1 3 0 0 0 0 0 0 0 0 0 0 0 0 0 0 0 0 0 0 0 0 0 0 0 0 0 0 0 0 0 0 0 0 0 0 0 0 0 0 0 0 0
1 0 0 0 0 0 0 0 0 0 0 0 0 0 0 0 0 0 0 0 0 0 0 0 0 0 0 0 0 0 0 0 0 0 0 0 0 0 0 0 0 0 0 0 0
0 0 0 0 0 0 0 0 0 0 0 0 0 0 0 0 0 0 0 0 0 0 0 0 0 0 0 0 0 0 0 0 0 0 0 0 0 0 0 0 0 0 0 0 0
0 0 0 0 0 0 0 0 0 0 0 0 0 0 0 0 0 0 0 0 0 0 0 0 0 0 0 0 0 0 0 0 0 0 0 0 0 0 0 0 0 0 0 0 0
0 0 0 0 0 0 0 0 0 0 0 0 0 0 0 0 0 0 0 0 0 0 0 0 0 0 0 0 0 0 0 0 0 0 0 0 0 0 0 0 0 0 0 0 0
0 0 0 0 0 0 0 0 0 0 0 0 0 0 0 0 0 0 0 0 0 0 0 0 0 0 0 0 0 0 0 0 0 0 0 0 0 0 0 0 0 0 0 0 0
0 0 1 0 0 0 0 0 0 0 0 0 0 0 0 0 0 0 0 0 0 0 0 0 0 0 0 0 0 0 0 0 1 1 0 0 0 0 0 0 0 0 0 0 0
0 0 0 0 0 0 0 0 0 0 0 0 0 0 0 0 0 0 0 0 0 0 0 0 0 0 0 0 0 0 0 0 0 0 0 0 0 0 0 0 0 0 0 0 0
0 0 0 0 0 0 0 0 0 0 1 0 0 0 0 0 0 0 0 0 0 0 0 0 0 0 0 0 0 0 0 0 1 0 0 0 0 0 0 0 0 0 0 0 0
0 0 0 0 0 0 0 0 0 0 0 0 0 0 0 0 0 1 0 0 0 0 0 0 0 0 0 0 0 0 0 0 0 0 0 0 0 0 0 0 0 0 0 0 0
0 0 0 0 0 0 0 0 0 0 0 0 0 0 0 0 0 0 0 0 0 0 0 0 0 0 0 0 0 0 0 0 0 0 0 0 0 0 0 0 1 0 0 0 0
0 0 0 0 0 0 0 0 0 0 0 0 0 0 0 0 0 0 0 0 0 0 0 0 0 0 0 0 0 0 0 0 0 7 0 0 0 0 1 0 0 0 0 0 0
0 0 0 0 0 0 0 0 0 0 0 0 0 0 0 0 0 0 0 0 0 0 0 0 0 0 0 0 0 0 0 0 0 7 0 0 0 0 0 0 0 0 0 0 0
CIN
0 0 0 0 -1 0 0 -1 0 0 0 0 0 0 0 0 0 0 0 0 0 0 0 0 0 0 0 0 0 0 0 0 0 0 0 0 0 0 0 0 0 0 0 0 0
-1 0 0 0 0 0 0 0 0 -1 0 0 0 0 0 0 0 0 0 0 0 0 0 0 0 0 0 0 0 0 0 0 0 0 0 0 0 0 0 0 0 0 0 0 -25
0 -1 0 -1 0 0 0 0 0 0 0 0 0 0 0 0 0 0 0 0 0 0 0 0 0 0 0 0 0 0 0 0 0 0 0 0 0 0 0 0 0 0 0 -170 -148
0 -1 -1 -1 -1 -1 -1 0 0 0 0 0 0 0 0 0 0 0 0 0 0 0 0 0 0 0 0 0 0 0 0 0 0 0 0 0 0 0 0 0 0 0 0 -76 -127
-1 0 -1 -1 -1 0 -1 0 0 0 0 0 0 0 0 0 0 0 0 0 0 0 0 0 0 0 0 0 0 0 0 0 0 0 0 0 0 0 0 0 0 0 0 0 0
0 0 -1 -1 0 0 0 0 0 0 0 0 0 0 0 0 0 0 0 0 0 0 0 0 0 0 0 0 0 0 0 0 0 0 0 0 0 0 0 0 0 0 0 0 0
-1 -1 0 0 0 0 0 0 0 0 0 0 0 0 0 0 0 0 0 0 0 0 0 0 0 0 0 0 0 0 0 0 0 0 0 0 0 0 0 0 0 0 0 0 0
-1 0 -1 -1 0 0 0 0 0 0 0 0 0 0 0 0 0 0 0 0 0 0 0 0 0 0 0 0 0 0 0 0 0 0 0 0 0 0 0 0 0 0 0 0 0
0 0 0 -1 -1 0 0 0 0 0 0 0 0 0 0 0 0 0 0 0 0 0 0 0 0 0 0 0 0 0 0 0 0 0 0 0 0 0 0 0 0 0 0 0 0
-1 0 0 0 0 0 0 0 0 0 0 0 0 0 0 0 0 0 0 0 0 0 0 0 0 0 0 0 0 0 0 0 0 0 0 0 0 0 0 0 0 0 0 0 0
0 0 0 0 -1 0 0 0 0 0 0 0 0 0 0 0 0 0 0 0 0 0 0 0 0 0 0 0 0 0 0 0 0 0 0 0 0 0 0 0 0 0 0 0 0
0 -1 -1 0 0 0 0 0 0 0 0 0 0 0 0 0 0 0 0 0 0 0 0 0 0 0 0 0 0 0 0 0 0 0 0 0 0 0 0 0 0 0 0 0 0
-1 0 -1 0 0 0 0 0 -3 0 0 0 0 0 0 0 0 0 0 0 0 0 0 0 0 0 0 0 0 0 0 0 0 0 0 0 0 0 0 0 0 0 0 0 0
-1 0 0 0 0 0 0 0 0 0 0 0 0 0 0 0 0 0 0 0 0 0 0 0 0 0 0 0 0 0 0 0 0 0 0 0 0 0 0 0 0 0 0 0 0
0 0 -1 0 0 0 0 0 0 0 0 0 0 0 0 0 0 0 0 0 0 0 0 0 0 0 0 0 0 0 0 0 0 0 0 0 0 0 0 0 0 0 0 0 0
0 0 0 0 0 0 0 0 0 0 0 0 0 0 0 0 0 0 0 0 0 0 0 0 0 0 0 0 0 0 0 0 0 0 0 0 0 0 0 0 0 0 0 0 0
0 0 0 0 0 0 0 0 0 0 0 0 0 0 0 0 0 0 0 0 0 0 0 0 0 0 0 0 0 0 0 0 0 0 0 0 0 0 0 0 0 0 0 0 0
0 0 0 0 0 0 0 0 0 0 0 0 0 0 0 0 0 0 0 0 0 0 0 0 0 0 0 0 0 0 0 0 0 0 0 0 0 0 0 0 0 0 0 0 0
0 0 0 0 0 0 0 0 0 0 0 0 0 0 0 0 0 0 0 0 0 0 0 0 0 0 0 0 0 0 0 0 0 0 0 0 0 0 0 0 0 0 0 0 0
0 0 -2 0 0 0 0 0 0 0 0 0 0 0 0 0 0 0 0 0 0 0 0 0 0 0 0 0 0 0 0 -1 -3 -1 -4 0 0 0 0 0 0 0 0 0 0
0 0 -6 0 0 0 0 0 0 0 0 0 0 0 0 0 0 0 0 0 0 0 0 0 0 0 0 0 0 0 0 0 -2 -10 0 0 0 0 0 0 0 0 0 0 0
0 0 0 0 0 0 0 0 0 0 0 0 0 0 0 0 0 0 0 0 0 0 0 0 -1 0 0 0 0 0 0 0 -1 0 0 0 0 0 0 0 0 0 0 0 0
0 0 0 0 0 0 0 0 0 0 -2 0 0 0 0 0 -4 0 0 0 0 0 0 0 0 0 0 0 0 0 0 0 0 0 0 0 0 0 0 0 0 0 0 0 0
0 0 0 0 0 0 0 0 0 0 0 0 0 0 0 0 0 -2 0 0 0 0 0 -2 0 0 0 0 0 0 0 0 0 0 0 0 0 0 0 0 0 0 0 0 0
0 0 0 0 0 0 0 0 0 0 0 0 0 0 0 0 0 0 0 0 0 0 0 0 0 0 0 0 0 0 0 0 0 0 0 0 0 0 0 0 -26 0 0 0 0
0 0 0 0 0 0 0 0 0 0 0 0 0 0 0 0 0 0 0 0 0 0 0 0 0 0 0 0 0 0 0 0 0 0 0 0 0 0 0 0 0 0 0 0 0
0 0 0 0 0 0 0 0 0 0 0 0 0 0 0 0 0 0 -4 0 0 0 0 0 0 0 0 0 0 0 0 0 0 0 0 0 0 0 0 0 0 0 0 0 0
Wind_Speed
31 32 32 33 33 34 34 35 35 35 35 36 36 36 35 31 27 24 26 28 31 33 33 30 24 26 19 18 17 15 19 19 20 17 19 23 27 23 22 23 22 21 17 18 2
33 34 35 35 35 35 36 36 37 37 37 37 37 37 35 31 22 28 29 31 32 32 30 29 27 27 21 19 18 16 21 19 20 20 24 27 25 28 27 26 25 24 21 13 4
35 35 36 37 37 37 38 38 38 38 38 37 37 37 35 28 24 28 33 33 33 32 28 25 24 22 22 22 21 21 25 24 27 26 28 32 34 25 28 32 25 27 20 12 12
36 37 38 38 38 39 39 39 39 39 39 38 37 35 33 22 29 29 34 34 31 31 29 27 26 24 25 25 24 30 28 31 31 32 34 38 35 33 30 29 25 26 17 12 12
37 38 39 39 40 40 40 41 40 40 39 37 34 32 24 24 27 33 34 33 30 30 28 28 26 27 28 29 31 32 33 34 35 38 36 36 42 41 38 30 28 27 21 18 17
38 39 40 40 41 41 42 41 40 39 36 33 29 27 23 26 27 31 32 31 31 29 29 26 26 27 30 30 31 34 37 39 37 39 38 40 46 38 36 31 34 33 29 26 24
38 39 40 40 42 42 42 42 42 37 31 26 26 22 22 22 24 30 31 31 30 28 29 25 26 26 28 32 32 36 43 42 40 38 39 36 46 38 43 36 39 41 35 32 27
38 39 40 41 41 42 43 44 38 29 25 23 24 21 23 19 26 32 33 32 33 27 25 24 25 25 27 30 34 38 38 43 31 31 30 28 52 40 36 37 42 41 44 38 34
38 39 40 41 42 42 43 41 30 29 24 20 22 21 23 24 29 31 32 31 31 29 25 22 21 24 28 36 37 33 44 42 42 37 36 36 47 39 37 38 42 42 43 39 41
39 40 41 42 41 41 43 29 23 28 24 20 23 20 24 25 28 29 32 28 27 29 23 28 25 27 33 36 43 47 48 47 51 42 50 54 58 51 47 47 47 46 44 42 45
39 39 40 40 39 38 40 23 25 25 28 23 22 20 23 25 23 32 31 26 27 27 32 30 28 36 36 35 39 44 48 54 51 47 51 55 59 54 50 53 51 49 49 41 37
39 40 40 40 37 33 34 26 24 21 24 22 19 21 20 23 24 33 30 27 30 33 32 29 30 32 38 39 43 45 52 53 50 40 51 52 71 61 60 58 53 50 51 51 46
40 40 39 40 29 30 29 29 24 21 21 20 19 23 28 23 23 30 29 28 29 34 32 29 27 38 41 42 46 46 50 52 56 54 53 58 73 63 61 57 57 56 51 50 47
40 39 39 38 24 30 25 30 26 20 22 22 20 23 28 20 23 25 30 29 29 31 29 29 34 43 43 39 43 49 38 50 55 54 54 43 68 66 54 54 53 61 52 50 45
41 40 39 32 26 27 29 30 25 18 30 21 20 19 28 22 24 29 31 30 30 29 28 34 41 44 39 43 41 43 44 47 50 55 59 59 53 70 45 58 63 53 54 49 47
43 40 35 29 28 27 31 29 19 24 28 23 20 26 27 27 27 28 30 30 25 29 28 39 34 32 42 40 38 46 49 51 47 45 59 57 52 70 65 64 60 53 54 53 50
43 39 30 27 30 31 28 23 24 27 21 23 24 27 23 28 26 31 33 32 31 37 42 37 29 35 31 49 41 44 43 49 47 45 57 42 44 67 60 53 50 53 52 51 49
43 32 27 29 30 29 25 23 26 20 21 21 26 25 22 27 27 31 34 31 30 35 40 43 43 43 42 42 43 43 34 40 50 54 57 48 53 54 41 50 56 57 57 56 52
38 28 28 31 32 28 24 24 22 21 22 24 25 22 23 28 27 30 31 27 31 33 39 42 38 48 37 39 31 31 31 31 43 49 52 46 53 65 60 60 54 57 58 51 48
32 25 29 31 32 27 23 20 19 21 23 23 22 20 26 28 27 32 28 24 32 32 33 34 50 37 35 32 28 24 28 34 31 42 45 45 49 50 51 50 46 51 55 61 55
29 25 29 30 25 26 24 21 21 22 25 21 22 23 24 25 27 30 25 27 25 34 32 34 33 45 29 35 36 31 28 28 34 33 42 48 42 39 42 44 33 26 31 38 42
28 28 28 29 28 24 25 23 22 24 23 21 21 20 23 26 26 26 23 24 27 31 35 28 31 40 41 30 16 22 30 33 35 40 48 51 53 43 40 25 34 36 33 29 30
29 25 23 25 28 29 25 27 20 22 24 24 23 21 25 27 29 22 23 24 26 26 30 28 29 44 46 25 14 34 35 39 41 42 45 46 44 26 37 44 43 39 38 35 31
27 29 27 26 25 27 29 24 27 23 21 21 21 24 25 26 22 23 25 24 24 24 25 23 26 28 32 23 30 45 44 44 41 41 47 47 48 47 41 41 37 35 35 35 31
27 25 25 28 28 28 27 24 29 29 22 24 24 25 30 29 28 25 28 27 25 26 18 25 29 27 20 19 16 40 43 42 40 41 43 44 41 43 43 41 29 28 29 30 28
24 25 23 23 23 26 26 25 27 27 27 28 24 32 26 28 26 29 29 26 26 25 23 20 29 26 25 22 21 44 39 33 34 35 38 38 35 44 41 34 27 26 27 27 28
19 18 20 22 24 27 25 25 24 24 23 25 32 30 29 25 26 24 24 23 23 25 24 25 25 25 27 21 37 36 26 36 33 35 36 35 40 44 30 23 23 22 24 26 27
Wind_Direction
345 344 341 338 336 334 333 331 329 328 328 327 327 326 327 329 341 349 338 329 321 317 318 318 320 312 319 315 310 314 302 298 302 304 301 301 294 297 302 290 292 298 297 298 220
343 341 338 336 335 333 330 328 325 324 324 324 324 323 322 322 339 344 332 327 324 322 322 321 316 311 310 309 307 296 295 296 297 300 298 295 296 290 291 289 287 289 295 290 229
340 340 338 335 334 332 330 327 325 323 323 324 324 323 321 326 327 328 329 327 327 326 323 322 321 320 308 304 301 299 289 295 292 292 295 286 285 294 286 279 288 284 289 279 261
339 337 336 335 333 330 329 327 325 324 322 324 325 327 324 333 311 328 328 330 332 331 328 320 314 311 304 300 302 292 292 291 289 289 288 282 285 284 284 283 290 292 289 276 261
338 337 335 334 331 330 328 325 325 323 322 323 326 329 331 326 322 327 326 327 330 330 331 322 314 308 300 300 297 290 292 291 289 286 287 286 276 277 278 285 287 288 283 274 268
338 336 334 331 330 328 326 326 326 325 326 327 332 333 330 315 331 333 331 330 324 326 324 326 316 309 300 298 295 294 292 289 290 286 285 283 274 278 278 285 280 280 278 274 269
339 336 335 333 331 329 328 326 323 325 330 336 338 340 340 328 339 340 335 334 329 323 318 321 321 313 306 298 298 294 289 289 288 288 283 285 277 277 274 280 276 272 275 273 269
341 339 336 335 333 331 328 325 328 336 338 338 339 337 326 342 338 334 335 327 332 330 326 318 319 312 307 303 298 292 290 285 294 297 292 285 273 278 282 279 273 273 267 269 267
342 340 337 336 334 333 330 327 339 340 342 346 344 338 325 336 333 334 336 330 330 330 339 329 326 317 314 301 295 294 285 286 288 295 290 282 278 281 282 278 273 272 270 269 264
343 341 339 337 336 338 333 344 349 356 347 354 351 340 343 333 340 337 337 336 332 332 319 326 318 309 312 306 289 287 285 285 284 287 284 277 276 277 275 275 272 269 270 267 264
343 342 340 338 339 344 344 353 344 339 354 348 346 347 343 342 343 340 339 332 335 333 317 320 312 305 308 307 300 293 288 283 286 289 284 278 275 276 275 269 269 268 265 267 268
343 342 341 339 341 352 359 0 358 353 341 354 360 356 351 349 338 341 346 336 331 322 325 317 310 316 313 308 301 295 289 287 288 290 287 282 270 275 269 265 266 267 264 262 264
345 343 343 340 349 354 2 359 358 359 342 346 355 354 347 348 346 343 349 342 332 324 324 314 312 317 313 308 301 298 293 290 285 289 285 282 271 271 267 266 263 261 263 263 261
345 345 342 342 355 349 354 351 351 357 333 333 342 349 346 354 345 351 347 342 334 325 327 319 319 314 311 309 308 298 301 294 288 287 280 286 273 268 269 266 262 256 260 260 260
343 343 343 349 348 349 344 342 346 354 317 337 343 354 344 349 340 337 339 336 333 330 329 321 318 315 313 311 307 300 307 298 291 284 282 274 271 266 268 262 259 262 259 260 259
343 343 346 352 348 346 339 341 352 329 315 330 339 334 340 342 339 339 341 341 338 334 333 323 328 328 318 316 309 304 304 299 290 284 275 274 266 266 263 263 265 265 260 258 257
345 346 355 357 346 344 345 344 328 320 331 329 328 333 339 337 338 339 338 339 339 329 324 330 335 335 332 320 321 311 306 297 289 279 276 288 269 265 268 271 270 267 262 260 258
348 357 4 2 352 350 352 339 323 332 331 336 331 333 336 342 338 338 336 337 346 342 330 326 323 336 329 326 317 312 306 295 287 283 281 284 272 268 280 273 267 264 263 262 258
358 8 7 0 355 359 354 341 336 336 338 334 336 335 332 337 338 340 338 342 347 353 337 330 328 332 336 334 334 324 311 308 293 288 284 282 278 272 275 271 267 263 261 261 259
5 12 6 3 358 3 3 1 354 350 342 340 337 340 331 334 338 338 342 348 344 353 352 341 325 344 341 342 342 332 323 312 303 291 286 285 279 274 274 271 276 270 263 256 258
17 17 11 7 15 11 8 5 0 353 344 346 340 337 339 338 339 338 344 348 359 349 352 346 342 336 345 339 328 332 334 321 309 299 291 285 279 289 275 270 278 285 281 267 259
26 18 21 18 17 16 9 11 6 358 356 350 348 347 342 339 338 342 348 350 354 353 347 355 346 339 334 333 342 338 326 318 310 301 292 285 271 282 273 270 283 285 289 289 276
29 35 39 39 15 5 10 3 19 11 0 352 346 344 341 339 335 346 346 352 348 352 351 354 352 339 341 344 346 319 312 307 306 302 287 282 268 287 289 279 277 282 283 278 281
34 26 31 32 30 15 5 13 358 2 357 355 346 341 342 342 342 340 340 346 348 344 345 354 346 341 336 327 326 298 281 294 302 296 291 276 267 268 281 285 274 283 279 278 280
32 32 31 20 20 10 9 7 356 355 4 353 349 345 338 338 338 337 338 337 339 340 351 344 338 336 326 316 294 268 276 282 288 288 292 278 268 284 285 272 277 284 284 283 282
29 28 29 24 25 19 13 10 3 1 354 349 348 338 338 331 328 324 329 332 335 335 334 337 330 334 323 325 324 280 274 283 290 303 306 296 285 298 285 254 268 280 288 288 287
32 35 30 22 19 14 13 9 2 360 3 353 340 338 334 328 325 321 320 315 312 316 316 325 328 333 328 324 315 291 281 297 295 302 313 303 302 305 273 267 269 276 296 290 288